Location: Balaclava NSW 2575, Australia
(34.4510°S, 150.4953°E)
Time: 15:52:30
(UTC+10:00)

Courier 1B - All Passes

Search period start: 15 June 2021 00:00
Search period end: 25 June 2021 00:00
Orbit: 962 x 1209 km, 28.3° (Epoch: 14 June)

Date Brightness Start Highest point End Pass type
(mag) Time Alt. Az. Time Alt. Az. Time Alt. Az.
15 Jun - 00:46:26 10° NNW 00:51:23 23° NNE 00:56:29 10° ENE night (unlit)
15 Jun - 02:38:29 10° WNW 02:44:47 45° NNE 02:51:28 10° E visible
15 Jun - 04:31:53 10° WNW 04:38:35 52° N 04:45:42 10° ENE visible
15 Jun - 06:25:53 10° W 06:32:24 37° NNW 06:39:14 10° NE visible
15 Jun - 08:21:30 10° WNW 08:25:58 17° NNW 08:30:32 10° N daylight
15 Jun - 23:53:48 10° NNW 23:57:50 17° NNE 00:01:58 10° ENE night (unlit)
16 Jun - 01:45:05 10° NW 01:51:08 39° NNE 01:57:27 10° E visible
16 Jun - 03:38:15 10° WNW 03:44:48 53° N 03:51:46 10° ENE visible
16 Jun - 05:32:05 10° W 05:38:37 42° NNW 05:45:33 10° NE visible
16 Jun - 07:26:58 10° WNW 07:32:15 21° NNW 07:37:43 10° NNE daylight
16 Jun - 23:01:49 10° N 23:04:19 12° NNE 23:06:51 10° NE night (unlit)
17 Jun - 00:51:48 10° NW 00:57:31 33° NNE 01:03:25 10° E night (unlit)
17 Jun - 02:44:40 10° WNW 02:51:04 51° N 02:57:51 10° ENE visible
17 Jun - 04:38:21 10° W 04:44:52 46° N 04:51:47 10° ENE visible
17 Jun - 06:32:47 10° WNW 06:38:32 26° NNW 06:44:32 10° NNE visible
17 Jun - 23:58:39 10° NNW 00:03:56 27° NNE 00:09:19 10° ENE night (unlit)
18 Jun - 01:51:09 10° WNW 01:57:23 47° N 02:03:56 10° E visible
18 Jun - 03:44:40 10° W 03:51:08 50° N 03:57:58 10° ENE visible
18 Jun - 05:38:48 10° W 05:44:48 31° NNW 05:51:08 10° NE visible
18 Jun - 07:35:30 10° NW 07:38:18 12° NNW 07:41:09 10° N daylight
18 Jun - 23:05:42 10° NNW 23:10:23 21° NNE 23:15:07 10° ENE night (unlit)
19 Jun - 00:57:40 10° WNW 01:03:44 42° NNE 01:10:01 10° E night (unlit)
19 Jun - 02:51:02 10° WNW 02:57:24 51° N 03:04:07 10° ENE visible
19 Jun - 04:44:57 10° W 04:51:06 36° NNW 04:57:36 10° NE visible
19 Jun - 06:40:24 10° WNW 06:44:37 17° NNW 06:48:58 10° N daylight
19 Jun - 22:13:05 10° N 22:16:51 16° NNE 22:20:37 10° ENE night (unlit)
20 Jun - 00:04:15 10° NW 00:10:08 37° NNE 00:16:06 10° E night (unlit)
20 Jun - 01:57:25 10° WNW 02:03:43 51° N 02:10:17 10° ENE visible
20 Jun - 03:51:12 10° W 03:57:25 41° NNW 04:03:57 10° NE visible
20 Jun - 05:45:58 10° WNW 05:50:57 21° NNW 05:56:07 10° NNE visible
20 Jun - 21:21:13 10° N 21:23:19 12° NNE 21:25:23 10° NE night (unlit)
20 Jun - 23:10:56 10° NW 23:16:32 31° NNE 23:22:09 10° ENE night (unlit)
21 Jun - 01:03:49 10° WNW 01:10:03 49° N 01:16:27 10° ENE night (unlit)
21 Jun - 02:57:29 10° W 03:03:44 46° N 03:10:15 10° ENE visible
21 Jun - 04:51:52 10° WNW 04:57:17 26° NNW 05:02:58 10° NNE visible
21 Jun - 22:17:44 10° NNW 22:22:58 25° NNE 22:28:09 10° ENE night (unlit)
22 Jun - 00:10:15 10° WNW 00:16:24 46° N 00:22:38 10° E night (unlit)
22 Jun - 02:03:49 10° WNW 02:10:03 49° N 02:16:31 10° ENE visible
22 Jun - 03:57:55 10° WNW 04:03:39 31° NNW 04:09:36 10° NE visible
22 Jun - 05:54:33 10° NW 05:57:02 12° NNW 05:59:34 10° N visible
22 Jun - 21:24:44 10° NNW 21:29:24 20° NNE 21:33:59 10° ENE night (unlit)
22 Jun - 23:16:43 10° NW 23:22:47 41° NNE 23:28:49 10° E night (unlit)
23 Jun - 01:10:09 10° WNW 01:16:23 50° N 01:22:47 10° ENE night (unlit)
23 Jun - 03:04:05 10° W 03:10:00 36° NNW 03:16:08 10° NE visible
23 Jun - 04:59:28 10° WNW 05:03:25 16° NNW 05:07:27 10° N visible
23 Jun - 20:32:03 10° N 20:35:50 16° NNE 20:39:33 10° ENE visible
23 Jun - 22:23:14 10° NW 22:29:10 36° NNE 22:35:01 10° E night (unlit)
24 Jun - 00:16:29 10° WNW 00:22:45 50° N 00:29:02 10° ENE night (unlit)
24 Jun - 02:10:19 10° W 02:16:22 41° NNW 02:22:34 10° NE visible
24 Jun - 04:05:04 10° WNW 04:09:48 21° NNW 04:14:40 10° NNE visible
24 Jun - 19:40:08 10° N 19:42:15 11° NNE 19:44:21 10° NE visible
24 Jun - 21:29:50 10° NW 21:35:34 30° NNE 21:41:09 10° ENE visible
24 Jun - 23:22:49 10° WNW 23:29:06 48° N 23:35:19 10° ENE night (unlit)
